GFSFLT1_700_rhum_231.txt.gz
RH
41 38 37 34 35 49 56 57 57 60 62 58 55 55 55 59 54 37 37 38 40 51 57 59 58 52 50 55 59 62 41 37
45 42 36 36 33 54 54 53 53 61 64 65 60 56 54 60 53 47 40 36 37 43 47 57 61 57 53 64 60 64 58 44
46 38 38 46 35 53 54 54 54 59 59 59 57 56 56 54 56 54 54 36 33 40 41 47 62 59 59 60 65 62 64 54
43 42 54 53 52 53 53 55 54 56 58 60 61 62 63 61 63 56 55 51 35 37 40 43 56 61 61 62 63 64 62 62
46 44 53 55 54 53 53 54 55 57 58 59 60 62 62 59 60 56 54 49 47 36 40 42 45 59 61 61 68 68 65 66
43 42 53 53 54 53 53 54 54 54 55 56 58 62 64 60 60 59 59 52 52 49 38 42 38 40 49 63 66 68 70 69
44 46 40 44 52 54 55 52 53 53 56 55 56 57 64 64 60 59 63 64 59 56 51 43 45 38 38 42 51 64 65 66
54 53 42 39 42 49 53 53 52 51 54 58 58 68 68 68 66 66 69 64 72 66 59 52 46 44 43 48 45 48 51 61
59 57 46 44 47 44 43 49 54 50 50 59 66 67 73 74 83 82 84 77 74 84 71 60 55 54 52 51 51 52 51 53
74 66 58 56 52 52 50 49 48 51 57 62 73 70 70 72 69 76 83 99 77 78 91 86 70 67 62 60 60 57 58 57
92 90 83 78 71 61 54 52 52 52 54 65 67 70 73 71 76 81 89 91 82 88 99 95 91 75 78 76 70 68 67 63
100 100 100 100 99 87 77 62 82 66 60 67 73 72 71 73 78 76 75 81 83 79 78 81 77 98 89 80 77 80 73 72
100 100 100 100 100 100 100 100 100 100 99 96 99 96 88 84 80 81 79 78 84 84 98 92 100 99 90 96 96 90 91 93
98 99 100 100 100 100 100 100 100 100 100 100 100 99 98 99 97 92 92 89 85 94 91 98 99 98 94 100 96 97 88 92
96 97 98 99 100 100 97 98 100 99 100 100 100 100 100 99 99 100 100 99 99 98 97 85 100 95 95 93 93 96 93 83
91 95 90 98 94 96 97 98 98 91 87 88 87 90 96 99 99 100 89 92 96 98 100 100 99 100 96 99 100 95 86 92
84 95 92 83 50 58 54 74 88 89 99 95 93 90 94 84 92 94 98 97 98 100 98 96 98 100 88 93 100 84 96 89
95 92 85 72 50 40 35 40 35 39 34 48 81 90 92 86 83 84 83 86 77 87 90 75 70 69 79 90 90 74 83 90
82 75 71 63 59 48 37 34 26 30 29 28 31 38 39 64 60 34 22 31 69 85 82 79 80 76 64 60 61 59 60 62

GFSFLT1_700_rhum_237.txt.gz
RH
48 47 48 43 45 39 42 49 55 57 60 65 68 67 58 54 51 49 53 77 72 66 70 73 75 74 64 59 54 52 56 55
48 55 54 54 50 51 42 51 54 59 61 63 64 64 58 56 50 52 49 60 83 84 77 74 76 72 66 59 61 54 55 65
53 36 43 48 48 49 55 51 47 49 51 56 57 57 55 51 54 54 52 50 62 82 76 70 72 62 68 59 68 64 54 56
61 44 44 45 47 44 54 57 55 54 51 53 55 59 52 61 64 60 57 55 54 63 66 67 70 66 63 63 65 59 58 53
46 45 54 38 40 46 48 55 56 60 57 50 46 47 44 58 61 60 61 57 58 57 66 59 58 56 62 70 64 64 61 62
64 58 56 55 49 43 57 55 62 64 57 48 41 40 38 57 59 57 61 60 60 62 63 61 52 49 57 62 60 58 56 58
75 70 65 54 47 60 61 64 62 57 60 57 48 37 46 58 57 59 60 60 59 61 63 63 58 52 50 54 60 58 56 59
85 80 79 76 66 70 79 66 62 62 66 64 50 44 56 57 58 60 62 65 63 62 61 56 60 57 58 48 53 60 55 56
79 79 83 87 81 78 79 68 67 64 64 60 54 56 55 57 60 60 59 62 62 61 62 63 60 63 60 55 48 52 56 56
100 93 87 81 76 73 73 64 62 59 64 62 56 55 56 58 60 61 66 69 71 69 71 68 67 69 70 69 63 54 58 61
100 100 97 85 76 70 75 75 62 58 62 62 61 59 59 60 61 62 62 64 70 70 71 72 74 75 78 73 73 71 60 64
100 100 100 100 99 91 86 92 85 72 68 60 62 61 64 56 58 60 66 68 72 72 77 79 82 82 79 82 74 77 70 66
96 97 98 100 100 100 100 100 100 100 97 74 84 82 67 56 59 62 66 77 82 89 91 90 94 92 98 81 79 80 92 84
97 96 95 96 98 100 100 100 100 100 100 100 95 86 82 96 80 91 76 79 88 96 98 95 93 94 86 76 76 74 91 98
96 97 95 96 97 97 98 100 100 100 100 100 100 100 99 99 99 100 88 84 93 99 98 100 97 97 98 82 88 86 76 86
88 90 94 94 93 92 95 97 97 100 100 99 100 100 100 99 98 100 99 99 100 100 99 100 99 100 99 98 100 92 96 92
32 42 51 75 86 81 40 54 85 95 97 96 97 100 98 100 100 98 100 100 99 91 98 100 100 100 100 79 91 98 96 92
60 21 16 13 16 20 26 31 18 33 60 78 77 88 93 95 98 99 100 100 100 100 100 94 99 99 98 100 99 94 94 93
19 16 14 11 7 5 5 4 6 5 5 13 47 49 44 53 70 90 96 96 98 100 98 94 97 100 98 98 98 90 91 100

GFSFLT1_700_rhum_240.txt.gz
RH
63 67 63 61 54 47 43 70 40 46 53 53 58 55 52 50 50 55 65 64 58 57 52 23 29 34 44 56 59 53 57 32
71 75 72 62 50 58 49 63 54 37 54 52 56 60 54 51 52 50 56 68 69 64 64 62 57 50 60 62 69 68 72 56
73 76 79 77 55 52 61 56 51 40 48 52 54 58 59 51 55 54 52 52 69 74 72 67 64 73 72 69 75 82 79 65
56 62 76 77 74 50 57 61 63 42 49 55 56 59 67 67 64 59 58 56 52 62 73 77 76 75 74 78 86 90 75 67
40 53 60 65 60 57 36 51 60 60 54 63 58 61 63 61 55 55 56 52 57 59 64 69 79 86 82 81 84 89 82 76
61 71 66 64 74 71 40 50 60 64 61 56 59 61 57 59 57 54 53 49 54 60 59 60 59 72 82 83 91 94 87 71
82 74 84 80 76 80 91 55 52 69 69 70 67 62 61 63 60 59 56 50 57 61 59 60 59 63 70 82 78 85 83 70
62 75 87 85 81 71 70 62 54 53 65 68 73 70 65 61 56 50 45 43 52 61 61 65 59 59 64 73 75 79 79 67
98 100 93 84 83 80 81 83 78 77 74 78 70 61 60 56 54 48 43 42 56 59 60 64 65 63 62 64 73 75 73 67
100 99 91 95 84 87 85 87 90 83 79 82 72 60 61 58 58 60 47 54 58 61 62 66 68 64 66 64 67 68 71 63
98 95 98 100 95 94 92 90 91 86 84 77 66 71 75 70 66 61 63 59 58 61 66 68 70 69 69 70 68 68 71 64
95 96 97 100 100 100 97 95 94 90 83 77 70 71 72 71 87 91 87 64 61 65 68 70 69 69 70 72 75 70 76 74
97 96 97 97 99 100 100 100 100 100 94 77 69 70 70 74 93 90 77 76 71 70 75 86 75 77 74 78 78 78 80 75
96 97 96 96 97 97 99 100 100 100 100 95 92 86 84 94 91 93 72 68 77 73 88 76 78 80 79 81 85 88 87 83
74 88 93 96 93 95 96 97 99 100 100 100 100 99 99 100 98 98 92 89 88 89 80 83 89 90 93 87 92 88 90 96
15 30 43 43 54 85 88 86 96 97 98 100 100 100 99 99 99 98 84 97 99 99 99 93 93 99 99 98 98 98 99 100
13 8 7 11 18 20 24 65 76 67 88 99 96 99 100 99 100 100 100 93 96 100 99 99 100 99 97 100 93 97 100 99
11 8 7 7 6 6 5 6 9 36 50 55 68 91 95 96 99 97 100 99 98 100 100 100 100 100 99 94 89 96 99 99
12 16 19 16 12 9 8 6 4 5 5 14 28 24 56 62 85 96 94 96 97 98 100 100 100 96 96 100 98 97 96 97

GFSFLT1_700_rhum_246.txt.gz
RH
26 31 43 52 55 56 54 56 64 56 66 62 44 54 42 40 39 40 44 45 63 66 56 57 28 23 27 34 34 33 30 26
29 26 27 35 49 56 66 60 60 68 61 62 54 52 50 49 41 40 42 50 53 71 55 51 24 21 21 27 31 36 34 30
45 42 33 26 26 41 53 69 67 64 74 62 72 51 57 50 46 43 41 45 55 65 57 44 28 22 26 37 26 38 37 30
57 42 46 35 29 28 31 59 76 74 73 65 81 69 68 62 52 48 44 44 53 62 65 50 40 31 25 42 28 25 32 29
68 71 65 71 54 34 30 50 74 77 83 74 71 91 66 72 64 67 53 42 51 53 67 67 52 53 48 28 26 29 23 26
55 71 65 74 83 47 32 51 72 71 83 91 69 70 90 79 73 66 67 50 51 46 48 75 76 70 59 63 50 38 26 23
71 55 65 61 59 58 46 45 64 87 94 86 90 72 79 88 73 73 74 68 54 44 44 50 54 67 74 72 71 75 45 25
85 79 68 69 59 56 67 61 58 75 76 92 95 83 63 78 80 63 74 88 64 53 50 51 52 55 58 63 69 76 77 81
99 99 98 98 94 47 77 77 60 72 90 76 91 97 74 77 73 79 66 59 81 61 55 53 47 46 50 55 55 58 67 72
96 96 96 100 98 86 63 66 66 69 83 90 98 100 96 83 72 90 78 71 74 74 63 58 56 52 52 61 60 58 61 66
93 95 96 96 99 99 100 77 99 100 88 92 89 100 94 95 90 95 99 99 99 90 63 65 63 62 65 66 63 59 59 72
88 94 95 96 97 96 97 98 94 99 99 100 99 99 69 98 98 90 87 100 98 100 99 82 80 75 75 66 60 59 56 64
85 60 43 87 92 95 96 98 100 100 100 99 99 100 99 89 98 100 82 93 96 100 100 99 98 81 69 63 60 56 52 54
24 45 30 29 63 91 94 96 99 100 100 100 100 98 92 99 91 89 97 98 96 96 87 90 100 89 80 73 71 59 44 47
12 12 15 17 19 24 55 74 92 95 98 95 99 99 96 84 92 96 96 91 85 84 83 82 85 100 88 88 88 71 56 57
11 10 10 14 16 17 19 20 48 75 81 90 98 100 99 99 100 100 100 93 87 84 85 81 85 92 90 93 96 98 84 86
9 8 8 7 8 8 9 10 17 26 60 53 81 92 94 98 100 98 100 100 100 98 86 89 95 97 85 82 100 96 98 92
9 9 9 7 7 8 8 7 7 6 7 28 27 40 60 66 94 96 96 100 97 100 100 100 99 98 97 98 99 99 82 100
12 13 12 10 9 9 8 9 6 6 5 5 5 10 13 28 35 43 74 94 99 97 99 95 99 100 99 98 95 96 100 98

GFSFLT1_700_rhum_252.txt.gz
RH
34 29 26 20 20 23 39 55 56 54 57 61 71 76 71 54 71 62 72 59 39 36 36 50 61 56 46 33 34 32 31 27
48 37 32 24 26 24 20 35 32 56 44 54 66 85 93 72 69 62 55 59 52 39 36 42 65 63 59 34 33 33 31 32
49 51 48 42 36 36 29 20 41 35 34 34 56 67 93 99 91 85 63 58 54 44 38 37 52 68 69 65 33 35 33 33
30 26 25 25 30 37 38 35 24 40 46 53 46 55 70 93 98 94 89 68 57 54 42 38 42 68 69 70 47 33 33 33
58 46 37 28 24 26 26 29 26 29 32 43 63 56 63 74 100 100 98 88 68 61 46 40 41 54 71 71 65 35 31 34
74 71 67 60 44 37 39 31 25 25 36 34 34 70 55 69 77 96 99 97 92 75 58 48 42 48 64 70 69 54 30 32
65 77 77 77 72 69 55 56 47 37 44 52 50 48 63 68 68 71 89 98 99 77 69 59 45 45 54 67 70 58 42 30
35 55 73 73 88 97 88 67 65 51 41 46 46 51 61 46 66 60 81 94 86 86 78 65 49 48 48 62 75 64 60 32
14 21 46 67 76 97 97 98 85 70 56 49 50 60 53 51 46 61 67 88 98 100 96 87 63 49 53 55 77 71 66 35
15 17 29 50 56 76 96 96 99 100 99 100 90 67 57 52 68 54 62 91 98 100 96 100 99 72 62 61 65 76 67 44
12 12 15 20 30 43 71 94 95 96 99 99 100 87 72 75 83 50 54 97 97 99 95 98 99 100 92 93 76 79 69 54
12 12 13 14 15 18 31 59 91 95 96 98 99 100 99 91 57 46 46 75 78 85 84 78 94 97 99 99 97 84 74 61
14 13 15 15 15 14 15 20 45 84 95 96 98 100 100 100 99 66 66 67 76 100 72 72 98 98 100 100 94 99 84 84
11 13 15 15 15 16 15 14 14 21 67 88 97 97 100 100 96 99 66 53 80 75 100 100 100 98 99 98 95 100 98 96
11 13 14 16 16 16 16 16 16 14 13 23 54 90 96 98 99 100 74 60 95 93 95 94 100 100 100 100 100 97 91 96
12 10 14 15 17 16 17 17 15 16 16 12 11 22 39 72 100 98 100 97 100 95 99 95 93 100 99 98 100 98 98 100
20 18 17 17 18 19 17 16 17 16 16 13 14 12 9 9 38 77 92 98 98 99 100 98 100 99 95 96 91 91 85 96
31 24 20 19 16 18 19 13 11 14 15 16 14 14 12 9 8 9 22 50 83 91 86 98 100 92 99 88 99 95 100 96
35 32 30 20 18 18 15 13 10 11 12 10 9 10 11 11 11 9 8 6 16 37 86 97 100 100 97 96 96 96 98 100

GFSFLT1_700_rhum_255.txt.gz
RH
43 38 33 27 23 23 20 20 22 24 37 39 48 56 55 61 70 54 55 66 73 69 56 47 47 51 61 51 35 36 31 26
39 37 40 40 37 32 25 19 20 23 22 30 46 45 56 59 60 73 57 56 70 77 73 55 49 48 58 60 40 37 35 31
37 33 31 28 29 32 32 30 22 19 23 26 28 43 42 58 63 66 87 69 62 74 81 64 50 48 60 65 69 36 37 36
54 47 40 34 25 22 22 23 21 23 24 21 26 30 38 42 60 66 78 96 74 80 79 77 59 50 49 59 67 61 36 36
50 54 51 50 37 29 27 21 18 16 19 22 22 25 32 39 52 53 63 83 100 97 82 82 75 60 49 62 62 70 48 36
20 31 36 54 63 54 44 36 35 31 19 18 22 27 28 37 42 54 56 64 94 76 100 86 84 73 55 54 61 75 69 41
15 17 30 24 44 63 74 61 53 55 51 40 36 24 23 27 30 42 53 54 61 96 90 89 82 69 66 57 62 64 67 65
9 9 10 11 23 35 52 83 81 89 78 60 54 55 42 31 30 29 39 46 61 62 92 98 100 82 66 66 71 60 67 72
10 9 10 10 9 13 30 41 87 92 99 98 97 96 63 40 38 41 38 38 41 53 76 94 96 100 76 67 71 76 66 72
10 10 11 11 10 13 15 22 35 85 96 100 100 100 76 56 39 35 34 30 45 44 49 69 83 88 96 72 62 72 76 72
10 11 12 12 13 12 13 14 17 35 66 95 96 98 99 93 96 58 42 42 49 45 41 43 83 100 99 93 81 72 77 77
10 13 13 12 12 13 14 13 16 16 35 63 94 94 98 99 100 97 72 69 59 59 77 76 64 85 98 95 100 86 75 86
12 12 13 14 14 14 15 16 15 15 14 26 48 90 96 98 99 100 100 87 94 96 65 61 59 77 99 100 98 93 80 86
21 13 13 14 16 17 17 16 15 14 13 13 21 31 82 95 97 98 99 100 100 93 54 50 66 76 100 100 79 96 100 89
37 18 15 15 18 20 19 16 13 12 12 12 12 20 19 57 94 98 99 99 100 100 80 42 71 96 99 99 100 99 98 100
37 22 20 22 19 17 14 12 12 11 10 11 11 11 12 17 24 88 95 97 99 100 93 55 72 94 97 96 100 100 98 98
36 32 31 24 16 10 7 6 6 6 6 6 10 10 9 11 13 13 45 94 99 100 100 78 88 97 96 92 78 96 100 100
48 46 44 36 17 10 8 7 6 5 5 5 4 6 7 8 9 12 13 18 43 99 74 87 87 81 80 76 98 85 99 100
62 52 46 29 13 10 9 6 4 4 4 3 3 3 4 6 8 10 11 8 7 22 67 97 93 99 81 72 69 82 89 100